| time (UTC) | temp C | wind direction | speed KPH | gust KPH | rain 1hr cm | rain 24hr cm | rain mn cm | humidity % | barometer mb |
| 20260506145740 | 11 | 22 | 8.0 | 17.7 | 0.00 | 0.05 | 0.00 | 56 | |
| 20260506145239 | 11 | 346 | 4.8 | 19.3 | 0.00 | 0.05 | 0.00 | 56 | |
| 20260506144738 | 11 | 342 | 8.0 | 19.3 | 0.00 | 0.05 | 0.00 | 57 | |
| 20260506144237 | 11 | 353 | 4.8 | 14.5 | 0.00 | 0.05 | 0.00 | 57 | |
| 20260506143736 | 11 | 11 | 9.7 | 25.7 | 0.00 | 0.05 | 0.00 | 59 | |
| 20260506143235 | 10 | 345 | 14.5 | 30.6 | 0.00 | 0.05 | 0.00 | 60 | |
| 20260506142733 | 10 | 17 | 6.4 | 20.9 | 0.00 | 0.05 | 0.00 | 60 | |
| 20260506142233 | 10 | 32 | 4.8 | 14.5 | 0.00 | 0.05 | 0.00 | 60 | |
| 20260506141731 | 10 | 347 | 9.7 | 16.1 | 0.00 | 0.05 | 0.00 | 61 | |
| 20260506141231 | 10 | 330 | 9.7 | 22.5 | 0.00 | 0.05 | 0.00 | 59 | |
| 20260506140730 | 11 | 22 | 9.7 | 19.3 | 0.00 | 0.05 | 0.00 | 61 | |
| 20260506140228 | 10 | 13 | 14.5 | 25.7 | 0.00 | 0.05 | 0.00 | 61 | |
| 20260506135727 | 10 | 33 | 9.7 | 20.9 | 0.00 | 0.05 | 0.00 | 61 | |
| 20260506135227 | 10 | 26 | 4.8 | 17.7 | 0.00 | 0.05 | 0.00 | 59 | |
| 20260506134726 | 10 | 25 | 9.7 | 20.9 | 0.00 | 0.05 | 0.00 | 60 | |
| 20260506134225 | 10 | 14 | 9.7 | 22.5 | 0.00 | 0.05 | 0.00 | 62 | |
| 20260506133745 | 10 | 11 | 11.3 | 20.9 | 0.00 | 0.05 | 0.00 | 61 | |
| 20260506133223 | 10 | 53 | 4.8 | 12.9 | 0.00 | 0.05 | 0.00 | 60 | |
| 20260506132722 | 10 | 24 | 4.8 | 19.3 | 0.00 | 0.05 | 0.00 | 62 | |
| 20260506132220 | 10 | 19 | 6.4 | 19.3 | 0.00 | 0.05 | 0.00 | 63 | |
| 20260506131239 | 10 | 17 | 12.9 | 29.0 | 0.00 | 0.05 | 0.00 | 63 | |
| 20260506130717 | 10 | 13 | 9.7 | 17.7 | 0.00 | 0.05 | 0.00 | 65 | |
| 20260506130216 | 10 | 6 | 11.3 | 20.9 | 0.00 | 0.05 | 0.00 | 66 | |
| 20260506125715 | 10 | 41 | 4.8 | 14.5 | 0.00 | 0.05 | 0.00 | 66 | |
| 20260506125214 | 9 | 13 | 3.2 | 12.9 | 0.00 | 0.05 | 0.00 | 68 | |
| 20260506124735 | 9 | 4 | 9.7 | 19.3 | 0.00 | 0.05 | 0.00 | 69 | |
| 20260506124212 | 8 | 13 | 6.4 | 14.5 | 0.00 | 0.05 | 0.00 | 72 | |
| 20260506123712 | 8 | 6 | 12.9 | 24.1 | 0.00 | 0.05 | 0.00 | 73 | |
| 20260506123211 | 8 | 24 | 4.8 | 14.5 | 0.00 | 0.05 | 0.00 | 76 | |
| 20260506122730 | 8 | 12 | 6.4 | 12.9 | 0.00 | 0.05 | 0.00 | 77 | |
| 20260506122208 | 8 | 14 | 6.4 | 14.5 | 0.00 | 0.05 | 0.00 | 78 | |
| 20260506121707 | 7 | 359 | 4.8 | 14.5 | 0.00 | 0.05 | 0.00 | 78 | |
| 20260506121207 | 7 | 14 | 4.8 | 11.3 | 0.00 | 0.05 | 0.00 | 79 | |
| 20260506120705 | 7 | 1 | 1.6 | 9.7 | 0.00 | 0.05 | 0.00 | 78 | |
| 20260506120225 | 7 | 15 | 4.8 | 12.9 | 0.00 | 0.05 | 0.00 | 78 | |
| 20260506115703 | 7 | 345 | 6.4 | 16.1 | 0.00 | 0.05 | 0.00 | 78 | |
| 20260506115203 | 7 | 2 | 1.6 | 6.4 | 0.00 | 0.05 | 0.00 | 79 | |
| 20260506114702 | 7 | 342 | 1.6 | 6.4 | 0.00 | 0.05 | 0.00 | 78 | |
| 20260506114200 | 7 | 11 | 1.6 | 9.7 | 0.00 | 0.05 | 0.00 | 80 | |
| 20260506113700 | 6 | 4 | 3.2 | 9.7 | 0.00 | 0.05 | 0.00 | 80 | |
| 20260506113158 | 6 | 11 | 4.8 | 12.9 | 0.00 | 0.05 | 0.00 | 80 | |
| 20260506112657 | 6 | 359 | 4.8 | 9.7 | 0.00 | 0.05 | 0.00 | 80 | |
| 20260506112156 | 6 | 350 | 4.8 | 12.9 | 0.00 | 0.05 | 0.00 | 80 | |
| 20260506111716 | 6 | 0 | 4.8 | 12.9 | 0.00 | 0.05 | 0.00 | 79 | |
| 20260506111154 | 6 | 353 | 6.4 | 14.5 | 0.00 | 0.05 | 0.00 | 79 | |
| 20260506110653 | 6 | 0 | 3.2 | 9.7 | 0.00 | 0.05 | 0.00 | 78 | |
| 20260506110213 | 6 | 356 | 6.4 | 12.9 | 0.00 | 0.05 | 0.00 | 77 | |
| 20260506105651 | 6 | 357 | 4.8 | 11.3 | 0.00 | 0.05 | 0.00 | 76 | |
| 20260506105150 | 6 | 349 | 8.0 | 12.9 | 0.00 | 0.05 | 0.00 | 76 | |
| 20260506104649 | 6 | 9 | 8.0 | 19.3 | 0.00 | 0.05 | 0.00 | 75 | |
| 20260506104148 | 6 | 348 | 9.7 | 20.9 | 0.00 | 0.05 | 0.00 | 75 | |
| 20260506103647 | 7 | 356 | 11.3 | 22.5 | 0.00 | 0.05 | 0.00 | 74 | |
| 20260506103207 | 7 | 353 | 9.7 | 14.5 | 0.00 | 0.05 | 0.00 | 73 | |
| 20260506102645 | 7 | 1 | 9.7 | 16.1 | 0.00 | 0.05 | 0.00 | 73 | |
| 20260506102144 | 7 | 353 | 8.0 | 12.9 | 0.00 | 0.05 | 0.00 | 72 | |
| 20260506101643 | 7 | 2 | 6.4 | 12.9 | 0.00 | 0.05 | 0.00 | 71 | |
| 20260506101142 | 7 | 353 | 9.7 | 16.1 | 0.00 | 0.05 | 0.00 | 71 | |
| 20260506100641 | 7 | 8 | 3.2 | 9.7 | 0.00 | 0.05 | 0.00 | 71 | |
| 20260506100140 | 7 | 4 | 8.0 | 16.1 | 0.00 | 0.05 | 0.00 | 71 | |
| 20260506095700 | 7 | 355 | 8.0 | 16.1 | 0.00 | 0.05 | 0.00 | 70 | |
| 20260506095138 | 7 | 350 | 3.2 | 9.7 | 0.00 | 0.05 | 0.00 | 69 | |
| 20260506094658 | 7 | 12 | 4.8 | 9.7 | 0.00 | 0.05 | 0.00 | 69 | |
| 20260506094136 | 7 | 346 | 8.0 | 19.3 | 0.00 | 0.05 | 0.00 | 68 | |
| 20260506093635 | 7 | 7 | 6.4 | 11.3 | 0.00 | 0.05 | 0.00 | 68 | |
| 20260506093134 | 7 | 351 | 8.0 | 16.1 | 0.00 | 0.05 | 0.00 | 67 | |
| 20260506092633 | 7 | 359 | 4.8 | 14.5 | 0.00 | 0.05 | 0.00 | 67 | |
| 20260506092132 | 7 | 352 | 8.0 | 14.5 | 0.00 | 0.05 | 0.00 | 65 | |
| 20260506091652 | 7 | 353 | 9.7 | 17.7 | 0.00 | 0.05 | 0.00 | 65 | |
| 20260506091130 | 7 | 351 | 8.0 | 20.9 | 0.00 | 0.05 | 0.00 | 65 | |
| 20260506090629 | 7 | 357 | 12.9 | 24.1 | 0.00 | 0.05 | 0.00 | 64 | |
| 20260506090129 | 7 | 349 | 4.8 | 14.5 | 0.00 | 0.05 | 0.00 | 65 | |
| 20260506085627 | 7 | 356 | 6.4 | 12.9 | 0.00 | 0.05 | 0.00 | 64 | |
| 20260506085127 | 7 | 358 | 8.0 | 17.7 | 0.00 | 0.05 | 0.00 | 64 | |
| 20260506084625 | 7 | 351 | 11.3 | 20.9 | 0.00 | 0.05 | 0.00 | 63 | |
| 20260506084124 | 7 | 355 | 6.4 | 17.7 | 0.00 | 0.05 | 0.00 | 63 | |
| 20260506083623 | 7 | 349 | 9.7 | 16.1 | 0.00 | 0.05 | 0.00 | 63 | |
| 20260506083122 | 7 | 2 | 8.0 | 19.3 | 0.00 | 0.05 | 0.00 | 63 | |
| 20260506082621 | 7 | 352 | 8.0 | 17.7 | 0.00 | 0.05 | 0.00 | 63 | |
| 20260506082120 | 7 | 359 | 6.4 | 16.1 | 0.00 | 0.05 | 0.00 | 61 | |
| 20260506081619 | 7 | 354 | 9.7 | 14.5 | 0.00 | 0.05 | 0.00 | 61 | |
| 20260506081118 | 7 | 2 | 9.7 | 17.7 | 0.00 | 0.05 | 0.00 | 61 | |
| 20260506080617 | 8 | 350 | 8.0 | 19.3 | 0.00 | 0.05 | 0.00 | 61 | |
| 20260506080116 | 8 | 354 | 4.8 | 12.9 | 0.00 | 0.05 | 0.00 | 60 | |
| 20260506073110 | 8 | 356 | 9.7 | 16.1 | 0.00 | 0.05 | 0.00 | 57 | |
| 20260506072609 | 8 | 6 | 11.3 | 19.3 | 0.00 | 0.05 | 0.00 | 57 | |
| 20260506072107 | 8 | 355 | 12.9 | 24.1 | 0.00 | 0.05 | 0.00 | 57 | |
| 20260506071607 | 8 | 3 | 14.5 | 30.6 | 0.00 | 0.05 | 0.00 | 57 | |
| 20260506071106 | 8 | 346 | 9.7 | 20.9 | 0.00 | 0.05 | 0.00 | 58 | |
| 20260506070605 | 8 | 353 | 11.3 | 19.3 | 0.00 | 0.05 | 0.00 | 57 | |
| 20260506070104 | 8 | 354 | 8.0 | 16.1 | 0.00 | 0.05 | 0.00 | 57 | |
| 20260506062056 | 8 | 357 | 9.7 | 19.3 | 0.00 | 0.05 | 0.00 | 61 | |
| 20260506061555 | 8 | 8 | 8.0 | 14.5 | 0.00 | 0.05 | 0.00 | 60 | |
| 20260506061053 | 8 | 353 | 9.7 | 17.7 | 0.00 | 0.05 | 0.00 | 60 | |
| 20260506060552 | 8 | 333 | 4.8 | 19.3 | 0.00 | 0.05 | 0.00 | 59 | |
| 20260506051042 | 8 | 348 | 8.0 | 19.3 | 0.00 | 0.08 | 0.00 | 57 | |
| 20260506050541 | 8 | 307 | 4.8 | 16.1 | 0.00 | 0.08 | 0.00 | 58 | |
| 20260506045038 | 9 | 350 | 9.7 | 19.3 | 0.00 | 0.10 | 0.00 | 56 | |
| 20260506044536 | 9 | 350 | 9.7 | 20.9 | 0.00 | 0.10 | 0.00 | 56 | |
| 20260506044037 | 9 | 348 | 8.0 | 19.3 | 0.00 | 0.10 | 0.00 | 57 | |
| 20260506043535 | 9 | 346 | 9.7 | 17.7 | 0.00 | 0.10 | 0.00 | 57 | |
| 20260506043033 | 9 | 358 | 9.7 | 16.1 | 0.00 | 0.10 | 0.00 | 58 | |
| 20260506042532 | 9 | 342 | 4.8 | 14.5 | 0.00 | 0.10 | 0.00 | 58 | |
| 20260506042031 | 9 | 338 | 3.2 | 12.9 | 0.00 | 0.10 | 0.00 | 57 | |
| 20260506041531 | 9 | 344 | 4.8 | 12.9 | 0.00 | 0.10 | 0.00 | 56 | |
| 20260506041052 | 9 | 357 | 9.7 | 17.7 | 0.00 | 0.10 | 0.00 | 56 | |
| 20260506040528 | 9 | 349 | 11.3 | 20.9 | 0.00 | 0.10 | 0.00 | 55 | |
| 20260506040027 | 9 | 351 | 9.7 | 17.7 | 0.00 | 0.10 | 0.00 | 55 | |
| 20260506035527 | 9 | 351 | 11.3 | 19.3 | 0.00 | 0.10 | 0.10 | 54 | |
| 20260506035025 | 9 | 352 | 9.7 | 20.9 | 0.00 | 0.10 | 0.10 | 57 | |
| 20260506034525 | 9 | 323 | 4.8 | 14.5 | 0.00 | 0.10 | 0.10 | 55 | |
| 20260506034024 | 9 | 306 | 1.6 | 8.0 | 0.00 | 0.10 | 0.10 | 55 | |
| 20260506033544 | 9 | 321 | 1.6 | 9.7 | 0.00 | 0.10 | 0.10 | 55 | |
| 20260506033042 | 9 | 295 | 3.2 | 14.5 | 0.00 | 0.10 | 0.10 | 54 | |
| 20260506032520 | 9 | 307 | 4.8 | 11.3 | 0.00 | 0.10 | 0.10 | 54 | |
| 20260506032020 | 9 | 296 | 4.8 | 12.9 | 0.00 | 0.10 | 0.10 | 53 | |
| 20260506031519 | 9 | 300 | 6.4 | 17.7 | 0.00 | 0.10 | 0.10 | 53 | |
| 20260506031017 | 9 | 309 | 4.8 | 16.1 | 0.00 | 0.10 | 0.10 | 52 | |
| 20260506030516 | 9 | 303 | 3.2 | 16.1 | 0.00 | 0.10 | 0.10 | 53 | |
| 20260506030015 | 9 | 302 | 6.4 | 14.5 | 0.00 | 0.10 | 0.10 | 52 | |
| 20260506025514 | 10 | 323 | 3.2 | 12.9 | 0.00 | 0.10 | 0.10 | 52 | |
| 20260506025034 | 10 | 301 | 4.8 | 16.1 | 0.00 | 0.10 | 0.10 | 52 | |
| 20260506024513 | 10 | 300 | 3.2 | 11.3 | 0.00 | 0.10 | 0.10 | 52 | |
| 20260506024011 | 10 | 308 | 6.4 | 22.5 | 0.00 | 0.10 | 0.10 | 51 | |
| 20260506023511 | 10 | 310 | 6.4 | 20.9 | 0.00 | 0.10 | 0.10 | 51 | |
| 20260506023030 | 10 | 310 | 3.2 | 12.9 | 0.00 | 0.10 | 0.10 | 51 | |
| 20260506022508 | 10 | 308 | 4.8 | 14.5 | 0.00 | 0.10 | 0.10 | 52 | |
| 20260506022007 | 10 | 316 | 4.8 | 17.7 | 0.00 | 0.10 | 0.10 | 50 | |
| 20260506021507 | 10 | 310 | 8.0 | 22.5 | 0.00 | 0.10 | 0.10 | 49 | |
| 20260506021006 | 10 | 306 | 4.8 | 17.7 | 0.00 | 0.10 | 0.10 | 50 | |
| 20260506020504 | 10 | 302 | 4.8 | 12.9 | 0.00 | 0.10 | 0.10 | 50 | |
| 20260506020004 | 10 | 304 | 6.4 | 27.4 | 0.00 | 0.10 | 0.10 | 50 | |
| 20260506015503 | 10 | 305 | 8.0 | 16.1 | 0.00 | 0.10 | 0.10 | 50 | |
| 20260506015001 | 10 | 308 | 6.4 | 17.7 | 0.00 | 0.10 | 0.10 | 49 | |
| 20260506014500 | 10 | 286 | 3.2 | 14.5 | 0.00 | 0.10 | 0.10 | 48 | |
| 20260506013959 | 10 | 305 | 6.4 | 20.9 | 0.00 | 0.10 | 0.10 | 48 | |
| 20260506013458 | 10 | 308 | 4.8 | 14.5 | 0.00 | 0.10 | 0.10 | 47 | |
| 20260506012957 | 10 | 307 | 8.0 | 19.3 | 0.00 | 0.10 | 0.10 | 47 | |
| 20260506012456 | 10 | 316 | 4.8 | 24.1 | 0.00 | 0.10 | 0.10 | 48 | |
| 20260506012016 | 10 | 325 | 6.4 | 17.7 | 0.00 | 0.10 | 0.10 | 49 | |
| 20260506011454 | 10 | 305 | 6.4 | 19.3 | 0.00 | 0.10 | 0.10 | 48 | |
| 20260506010953 | 10 | 313 | 9.7 | 20.9 | 0.00 | 0.10 | 0.10 | 47 | |
| 20260506010452 | 10 | 311 | 6.4 | 19.3 | 0.00 | 0.10 | 0.10 | 48 | |
| 20260506005951 | 10 | 311 | 11.3 | 29.0 | 0.00 | 0.10 | 0.10 | 47 | |
| 20260506005450 | 10 | 320 | 1.6 | 19.3 | 0.00 | 0.10 | 0.10 | 48 | |
| 20260506005010 | 10 | 306 | 8.0 | 22.5 | 0.00 | 0.10 | 0.10 | 47 | |
| 20260506004509 | 10 | 308 | 6.4 | 19.3 | 0.00 | 0.10 | 0.10 | 47 | |
| 20260506003947 | 11 | 297 | 11.3 | 27.4 | 0.00 | 0.10 | 0.10 | 46 | |
| 20260506003446 | 11 | 306 | 11.3 | 24.1 | 0.00 | 0.10 | 0.10 | 46 | |
| 20260506003006 | 11 | 324 | 14.5 | 35.4 | 0.00 | 0.10 | 0.10 | 48 | |
| 20260506002444 | 11 | 344 | 6.4 | 22.5 | 0.00 | 0.10 | 0.10 | 49 | |
| 20260506001943 | 11 | 326 | 9.7 | 25.7 | 0.00 | 0.10 | 0.10 | 48 | |
| 20260506001443 | 11 | 333 | 8.0 | 24.1 | 0.00 | 0.10 | 0.10 | 48 | |
| 20260506000941 | 11 | 313 | 12.9 | 25.7 | 0.00 | 0.10 | 0.10 | 47 | |
| 20260506000440 | 11 | 303 | 12.9 | 27.4 | 0.00 | 0.10 | 0.10 | 47 | |
| 20260505235939 | 11 | 310 | 19.3 | 43.5 | 0.00 | 0.10 | 0.10 | 49 | |
| 20260505235438 | 11 | 319 | 8.0 | 29.0 | 0.00 | 0.10 | 0.10 | 52 | |
| 20260505234937 | 11 | 304 | 6.4 | 17.7 | 0.00 | 0.10 | 0.10 | 52 | |
| 20260505234436 | 11 | 299 | 6.4 | 24.1 | 0.00 | 0.10 | 0.10 | 52 | |
| 20260505233956 | 11 | 307 | 9.7 | 20.9 | 0.00 | 0.10 | 0.10 | 52 | |
| 20260505233434 | 11 | 299 | 11.3 | 20.9 | 0.00 | 0.10 | 0.10 | 51 | |
| 20260505232933 | 11 | 301 | 11.3 | 25.7 | 0.00 | 0.10 | 0.10 | 51 | |
| 20260505232432 | 11 | 310 | 9.7 | 19.3 | 0.00 | 0.10 | 0.10 | 51 | |
| 20260505231952 | 11 | 310 | 11.3 | 29.0 | 0.00 | 0.10 | 0.10 | 51 | |
| 20260505231430 | 11 | 311 | 14.5 | 30.6 | 0.00 | 0.10 | 0.10 | 50 | |
| 20260505230929 | 11 | 305 | 4.8 | 24.1 | 0.00 | 0.10 | 0.10 | 52 | |
| 20260505230429 | 11 | 312 | 9.7 | 22.5 | 0.00 | 0.10 | 0.10 | 51 | |
| 20260505225957 | 12 | 308 | 9.7 | 27.4 | 0.00 | 0.10 | 0.10 | 52 | |
| 20260505225426 | 12 | 308 | 14.5 | 30.6 | 0.00 | 0.10 | 0.10 | 50 | |
| 20260505224924 | 12 | 314 | 14.5 | 25.7 | 0.00 | 0.10 | 0.10 | 52 | |
| 20260505224424 | 12 | 308 | 14.5 | 25.7 | 0.00 | 0.10 | 0.10 | 52 | |
| 20260505223923 | 12 | 305 | 14.5 | 25.7 | 0.00 | 0.10 | 0.10 | 53 | |
| 20260505223422 | 12 | 318 | 12.9 | 33.8 | 0.00 | 0.10 | 0.10 | 54 | |
| 20260505222920 | 12 | 314 | 12.9 | 33.8 | 0.00 | 0.10 | 0.10 | 54 | |
| 20260505222421 | 12 | 313 | 12.9 | 29.0 | 0.00 | 0.10 | 0.10 | 54 | |
| 20260505221940 | 12 | 313 | 8.0 | 22.5 | 0.00 | 0.10 | 0.10 | 55 | |
| 20260505221418 | 12 | 300 | 9.7 | 27.4 | 0.00 | 0.10 | 0.10 | 55 | |
| 20260505220917 | 12 | 316 | 17.7 | 30.6 | 0.00 | 0.10 | 0.10 | 54 | |
| 20260505220416 | 12 | 309 | 11.3 | 41.8 | 0.00 | 0.10 | 0.10 | 56 | |
| 20260505215915 | 12 | 306 | 16.1 | 30.6 | 0.00 | 0.10 | 0.10 | 59 | |
| 20260505215414 | 12 | 309 | 19.3 | 37.0 | 0.00 | 0.10 | 0.10 | 59 | |
| 20260505214913 | 12 | 307 | 20.9 | 37.0 | 0.00 | 0.10 | 0.10 | 61 | |
| 20260505214433 | 12 | 308 | 17.7 | 35.4 | 0.00 | 0.10 | 0.10 | 61 | |
| 20260505213932 | 12 | 304 | 14.5 | 37.0 | 0.00 | 0.10 | 0.10 | 62 | |
| 20260505213409 | 12 | 292 | 19.3 | 46.7 | 0.00 | 0.10 | 0.10 | 64 | |
| 20260505212909 | 12 | 308 | 14.5 | 37.0 | 0.00 | 0.10 | 0.10 | 67 | |
| 20260505212407 | 12 | 282 | 9.7 | 22.5 | 0.00 | 0.10 | 0.10 | 71 | |
| 20260505211907 | 12 | 283 | 6.4 | 16.1 | 0.00 | 0.10 | 0.10 | 73 | |
| 20260505211407 | 12 | 285 | 4.8 | 12.9 | 0.00 | 0.10 | 0.10 | 73 | |
| 20260505210904 | 12 | 304 | 11.3 | 20.9 | 0.00 | 0.10 | 0.10 | 73 | |
| 20260505210425 | 12 | 279 | 6.4 | 17.7 | 0.00 | 0.10 | 0.10 | 75 | |
| 20260505205924 | 11 | 285 | 8.0 | 22.5 | 0.00 | 0.10 | 0.10 | 75 | |
| 20260505205423 | 11 | 267 | 6.4 | 22.5 | 0.00 | 0.10 | 0.10 | 75 | |
| 20260505204901 | 11 | 247 | 9.7 | 20.9 | 0.00 | 0.10 | 0.10 | 75 | |
| 20260505204359 | 11 | 253 | 11.3 | 30.6 | 0.00 | 0.10 | 0.10 | 75 | |
| 20260505203858 | 11 | 221 | 11.3 | 19.3 | 0.00 | 0.10 | 0.10 | 75 | |
| 20260505203418 | 11 | 238 | 9.7 | 25.7 | 0.00 | 0.10 | 0.10 | 76 | |
| 20260505202857 | 11 | 252 | 8.0 | 19.3 | 0.00 | 0.10 | 0.10 | 76 | |
| 20260505202356 | 11 | 244 | 8.0 | 24.1 | 0.00 | 0.10 | 0.10 | 77 | |
| 20260505201854 | 11 | 258 | 4.8 | 22.5 | 0.00 | 0.10 | 0.10 | 77 | |
| 20260505201354 | 11 | 250 | 4.8 | 17.7 | 0.00 | 0.10 | 0.10 | 77 | |
| 20260505200853 | 11 | 281 | 6.4 | 24.1 | 0.00 | 0.10 | 0.10 | 77 | |
| 20260505200351 | 11 | 259 | 6.4 | 22.5 | 0.00 | 0.10 | 0.10 | 77 | |
| 20260505195851 | 11 | 278 | 8.0 | 22.5 | 0.00 | 0.10 | 0.10 | 77 | |
| 20260505195349 | 11 | 277 | 12.9 | 30.6 | 0.00 | 0.10 | 0.10 | 77 | |
| 20260505194848 | 11 | 276 | 9.7 | 25.7 | 0.00 | 0.10 | 0.10 | 79 | |
| 20260505194347 | 11 | 247 | 8.0 | 19.3 | 0.00 | 0.10 | 0.10 | 79 | |
| 20260505193846 | 11 | 223 | 8.0 | 24.1 | 0.00 | 0.10 | 0.10 | 80 | |
| 20260505193407 | 11 | 227 | 11.3 | 27.4 | 0.00 | 0.10 | 0.10 | 80 | |
| 20260505192844 | 11 | 258 | 9.7 | 20.9 | 0.00 | 0.10 | 0.10 | 80 | |
| 20260505192343 | 11 | 249 | 11.3 | 33.8 | 0.00 | 0.10 | 0.10 | 80 | |
| 20260505191842 | 11 | 245 | 6.4 | 17.7 | 0.00 | 0.10 | 0.10 | 81 | |
| 20260505191342 | 11 | 229 | 11.3 | 27.4 | 0.00 | 0.10 | 0.10 | 81 | |
| 20260505190840 | 11 | 227 | 11.3 | 24.1 | 0.00 | 0.10 | 0.10 | 81 | |
| 20260505190339 | 11 | 221 | 16.1 | 29.0 | 0.00 | 0.10 | 0.10 | 81 | |
| 20260505185838 | 11 | 218 | 12.9 | 24.1 | 0.00 | 0.10 | 0.10 | 81 | |
| 20260505185358 | 11 | 235 | 8.0 | 24.1 | 0.00 | 0.10 | 0.10 | 81 | |
| 20260505184836 | 11 | 240 | 8.0 | 16.1 | 0.00 | 0.10 | 0.10 | 80 | |
| 20260505184336 | 11 | 230 | 11.3 | 29.0 | 0.00 | 0.10 | 0.10 | 80 | |
| 20260505183835 | 11 | 228 | 17.7 | 30.6 | 0.00 | 0.10 | 0.10 | 79 | |
| 20260505183333 | 11 | 226 | 12.9 | 32.2 | 0.00 | 0.10 | 0.10 | 80 | |
| 20260505182832 | 11 | 254 | 14.5 | 32.2 | 0.00 | 0.10 | 0.10 | 80 | |
| 20260505182331 | 11 | 224 | 12.9 | 24.1 | 0.00 | 0.10 | 0.10 | 79 | |
| 20260505181831 | 12 | 260 | 17.7 | 33.8 | 0.00 | 0.10 | 0.10 | 79 | |
| 20260505181329 | 12 | 215 | 12.9 | 32.2 | 0.00 | 0.10 | 0.10 | 80 | |
| 20260505180849 | 11 | 211 | 14.5 | 25.7 | 0.00 | 0.10 | 0.10 | 82 | |
| 20260505180328 | 11 | 217 | 16.1 | 27.4 | 0.00 | 0.10 | 0.10 | 83 | |
| 20260505175827 | 11 | 242 | 14.5 | 30.6 | 0.00 | 0.10 | 0.10 | 83 | |
| 20260505175325 | 11 | 231 | 11.3 | 27.4 | 0.00 | 0.10 | 0.10 | 85 | |
| 20260505174824 | 11 | 221 | 9.7 | 24.1 | 0.00 | 0.10 | 0.10 | 85 | |
| 20260505174323 | 11 | 229 | 8.0 | 20.9 | 0.00 | 0.10 | 0.10 | 86 | |
| 20260505173843 | 10 | 234 | 12.9 | 25.7 | 0.00 | 0.10 | 0.10 | 85 | |
| 20260505173343 | 10 | 236 | 8.0 | 22.5 | 0.00 | 0.10 | 0.10 | 84 | |
| 20260505172820 | 11 | 250 | 11.3 | 29.0 | 0.03 | 0.10 | 0.10 | 83 | |
| 20260505172319 | 11 | 271 | 4.8 | 17.7 | 0.03 | 0.10 | 0.10 | 83 | |
| 20260505171819 | 11 | 252 | 12.9 | 27.4 | 0.03 | 0.10 | 0.10 | 83 | |
| 20260505171318 | 11 | 241 | 16.1 | 32.2 | 0.05 | 0.10 | 0.10 | 85 | |
| 20260505170816 | 10 | 225 | 16.1 | 33.8 | 0.05 | 0.10 | 0.10 | 86 | |
| 20260505170316 | 10 | 237 | 9.7 | 27.4 | 0.05 | 0.10 | 0.10 | 87 | |
| 20260505165814 | 10 | 248 | 17.7 | 41.8 | 0.05 | 0.10 | 0.10 | 88 | |
| 20260505165334 | 10 | 236 | 12.9 | 27.4 | 0.05 | 0.10 | 0.10 | 88 | |
| 20260505164813 | 10 | 237 | 3.2 | 11.3 | 0.05 | 0.10 | 0.10 | 87 | |
| 20260505164311 | 10 | 273 | 1.6 | 11.3 | 0.05 | 0.10 | 0.10 | 87 | |
| 20260505163810 | 10 | 265 | 6.4 | 17.7 | 0.05 | 0.10 | 0.10 | 86 | |
| 20260505163331 | 10 | 299 | 4.8 | 16.1 | 0.05 | 0.10 | 0.08 | 86 | |
| 20260505162808 | 10 | 283 | 4.8 | 16.1 | 0.03 | 0.08 | 0.08 | 85 | |
| 20260505162307 | 10 | 296 | 8.0 | 25.7 | 0.03 | 0.08 | 0.08 | 85 | |
| 20260505161806 | 10 | 307 | 6.4 | 22.5 | 0.03 | 0.08 | 0.08 | 83 | |
| 20260505161326 | 11 | 319 | 12.9 | 25.7 | 0.00 | 0.05 | 0.05 | 82 | |
| 20260505160804 | 11 | 341 | 14.5 | 30.6 | 0.00 | 0.05 | 0.05 | 80 | |
| 20260505160303 | 11 | 344 | 9.7 | 22.5 | 0.00 | 0.05 | 0.05 | 78 | |
| 20260505153318 | 13 | 356 | 16.1 | 29.0 | 0.00 | 0.05 | 0.05 | 66 | |
| 20260505152757 | 13 | 354 | 14.5 | 27.4 | 0.00 | 0.05 | 0.05 | 65 | |
| 20260505152255 | 13 | 341 | 14.5 | 27.4 | 0.00 | 0.05 | 0.05 | 65 | |
| 20260505151754 | 13 | 321 | 12.9 | 24.1 | 0.00 | 0.05 | 0.05 | 61 | |
| 20260505151253 | 13 | 295 | 14.5 | 30.6 | 0.00 | 0.05 | 0.05 | 61 | |
| 20260505150752 | 13 | 307 | 14.5 | 27.4 | 0.00 | 0.05 | 0.05 | 60 | |
| 20260505150313 | 13 | 310 | 11.3 | 24.1 | 0.00 | 0.05 | 0.05 | 61 |